Location: Hohe Wand Waldeggerhaus
(47.8500°N, 16.0440°E)
Time: 08:55:10
(UTC+02:00)

Envisat - Pass Details

Date: 01 June 2024
Orbit: 762 x 764 km, 98.3° (Epoch: 13 June)

Event Time Altitude Azimuth Distance (km) Brightness Sun altitude
Rises 02:52:42 0° 30° (NNE) 3,237 8.2 -15.1°
Reaches altitude 10° 02:56:04 10° 53° (NE) 2,305 6.6 -14.9°
Maximum altitude 02:58:55 15° 88° (E) 1,972 5.5 -14.6°
Drops below altitude 10° 03:01:46 10° 122° (ESE) 2,295 5.5 -14.4°
Sets 03:05:05 0° 146° (SE) 3,214 6.0 -14.1°
